Location: Vancouver
(49.2500°N, 123.1330°W)
Time: 20:55:12
(UTC-07:00)

BREEZE-M DEB (TANK) - Visible Passes

Search period start: 19 September 2014 00:00
Search period end: 29 September 2014 00:00
Orbit: 281 x 13653 km, 49.6° (Epoch: 18 September)

Date Brightness Start Highest point End Pass type
(mag) Time Alt. Az. Time Alt. Az. Time Alt. Az.
19 Sep 10.1 20:39:43 10° WNW 21:08:10 18° W 21:55:29 10° WSW visible
20 Sep 8.7 17:40:47 10° WNW 18:14:52 49° WSW 19:52:40 10° S visible
21 Sep 9.5 19:23:17 10° WNW 19:57:22 29° WSW 21:08:47 10° SW visible
23 Sep 8.9 18:10:11 10° WNW 18:44:25 39° WSW 20:11:28 10° SSW visible
24 Sep 9.9 19:56:11 10° WNW 20:24:17 19° W 21:13:24 10° WSW visible
26 Sep 9.2 18:40:11 10° WNW 19:12:39 30° WSW 20:24:43 10° SW visible
27 Sep 10.3 20:41:35 10° W 20:49:46 11° W 20:59:09 10° W visible
28 Sep 8.7 17:27:07 10° WNW 17:59:00 40° WSW 19:25:49 10° SSW visible
